Regional Weather Roundup
Issued by NWS Charleston, WV

Home | Current Version | Previous Version | Graphics & Text | Print | Product List | Glossary On
Versions: 1 2 3 4 5 6 7 8 9 10 11 12 13 14 15 16 17 18 19 20 21 22 23 24 25 26 27 28 29 30 31 32 33 34 35 36 37 38 39 40 41 42 43 44 45 46 47 48 49 50
000
ASUS41 KRLX 212010
RWRRLX
West Virginia Regional Weather Roundup
National Weather Service Charleston WV
400 PM EDT SUN SEP 21 2014

Note: "fair" indicates few or no clouds below 12,000 feet with no
significant weather and/or obstructions to visibility.

WVZ003-212100-
Northern Panhandle of West Virginia

CITY           SKY/WX    TMP DP  RH WIND       PRES   REMARKS
WHEELING       MOSUNNY   78  54  43 W20G32    29.68F
$$

WVZ009-212100-
Northwest West Virginia

CITY           SKY/WX    TMP DP  RH WIND       PRES   REMARKS
PARKERSBURG    MOSUNNY   76  67  73 SW7       29.75F
$$

WVZ006-212100-
Western West Virginia

CITY           SKY/WX    TMP DP  RH WIND       PRES   REMARKS
HUNTINGTON     LGT RAIN  69  64  84 SW9G22    29.78F
$$

WVZ015-212100-
West Central West Virginia

CITY           SKY/WX    TMP DP  RH WIND       PRES   REMARKS
CHARLESTON     MOSUNNY   79  66  64 SW14      29.78F
$$

WVZ031-212100-
North Central West Virginia

CITY           SKY/WX    TMP DP  RH WIND       PRES   REMARKS
CLARKSBURG     PTSUNNY   75  64  68 SW13      29.72F
MORGANTOWN     PTSUNNY   78  63  59 SW9       29.71F
$$

WVZ035-042-045-212100-
South Central West Virginia

CITY           SKY/WX    TMP DP  RH WIND       PRES   REMARKS
BECKLEY        LGT RAIN  68  63  84 W12G20    29.89S
BLUEFIELD      LGT RAIN  68  63  84 NW9       29.91F
LEWISBURG      PTSUNNY   76  61  60 W10G17    29.86S
$$

WVZ047-212100-
Northern Mountains of West Virginia

CITY           SKY/WX    TMP DP  RH WIND       PRES   REMARKS
ELKINS         MOSUNNY   75  63  66 SW10G17   29.80F
$$

WVZ052-212100-
Eastern Panhandle of West Virginia

CITY           SKY/WX    TMP DP  RH WIND       PRES   REMARKS
MARTINSBURG    CLOUDY    83  59  44 S8        29.66F
PETERSBURG     MOSUNNY   83  56  39 W14       29.73S
$$


USA.gov is the U.S. government's official web portal to all federal, state and local government web resources and services.